Meteo pe oră la Bolshie Motykaly

Astăzi, 8 Mai, Sâmbătă

Timp Temperatura Precipitaţii Vânt Presiune Umiditate
00:00 +3°C° 0.1 mm 3 m/s 744 mmHg 91%
01:00 +3°C° 0.1 mm 3 m/s 744 mmHg 92%
02:00 +3°C° 0.1 mm 3 m/s 744 mmHg 93%
03:00 +3°C° 1.3 mm 4 m/s 745 mmHg 94%
04:00 +1°C° 1.3 mm 4 m/s 746 mmHg 96%
05:00 0°C° 1.3 mm 5 m/s 746 mmHg 97%
06:00 +1°C° 0.7 mm 5 m/s 747 mmHg 95%
07:00 +2°C° 0.7 mm 5 m/s 748 mmHg 92%
08:00 +2°C° 0.7 mm 5 m/s 748 mmHg 90%
09:00 +3°C° 0.1 mm 5 m/s 749 mmHg 84%
10:00 +4°C° 0.1 mm 6 m/s 749 mmHg 79%
11:00 +5°C° 0.1 mm 6 m/s 749 mmHg 73%
12:00 +5°C° 0.1 mm 6 m/s 750 mmHg 71%
13:00 +7°C° 0.1 mm 6 m/s 750 mmHg 70%
14:00 +7°C° 0.1 mm 6 m/s 750 mmHg 68%
15:00 +7°C° 0 mm 5 m/s 751 mmHg 66%
16:00 +8°C° 0 mm 5 m/s 751 mmHg 63%
17:00 +8°C° 0 mm 5 m/s 751 mmHg 60%
18:00 +7°C° 0.1 mm 4 m/s 751 mmHg 68%
19:00 +7°C° 0.1 mm 3 m/s 752 mmHg 76%
20:00 +4°C° 0.1 mm 3 m/s 752 mmHg 84%
21:00 +4°C° 0 mm 3 m/s 752 mmHg 86%
22:00 +3°C° 0 mm 3 m/s 752 mmHg 88%
23:00 +2°C° 0 mm 3 m/s 753 mmHg 90%

Mâine, 9 Mai, Duminică

Timp Temperatura Precipitaţii Vânt Presiune Umiditate
00:00 +3°C° 0 mm 2 m/s 753 mmHg 91%
01:00 +3°C° 0 mm 2 m/s 753 mmHg 91%
02:00 +2°C° 0 mm 2 m/s 754 mmHg 91%
03:00 +2°C° 0 mm 2 m/s 754 mmHg 90%
04:00 +2°C° 0 mm 2 m/s 754 mmHg 90%
05:00 +2°C° 0 mm 2 m/s 754 mmHg 89%
06:00 +4°C° 0 mm 2 m/s 755 mmHg 83%
07:00 +6°C° 0 mm 2 m/s 755 mmHg 77%
08:00 +7°C° 0 mm 2 m/s 755 mmHg 70%
09:00 +9°C° 0 mm 2 m/s 755 mmHg 63%
10:00 +11°C° 0 mm 3 m/s 755 mmHg 57%
11:00 +13°C° 0 mm 3 m/s 755 mmHg 50%
12:00 +13°C° 0 mm 4 m/s 755 mmHg 49%
13:00 +14°C° 0 mm 4 m/s 754 mmHg 47%
14:00 +15°C° 0 mm 4 m/s 754 mmHg 46%
15:00 +15°C° 0 mm 4 m/s 754 mmHg 49%
16:00 +15°C° 0 mm 4 m/s 754 mmHg 52%
17:00 +17°C° 0 mm 4 m/s 754 mmHg 54%
18:00 +14°C° 0 mm 4 m/s 754 mmHg 60%
19:00 +12°C° 0 mm 3 m/s 754 mmHg 66%
20:00 +11°C° 0 mm 3 m/s 754 mmHg 73%
21:00 +10°C° 0 mm 4 m/s 754 mmHg 73%
22:00 +10°C° 0 mm 4 m/s 754 mmHg 74%
23:00 +8°C° 0 mm 4 m/s 754 mmHg 75%

Poimâine, 10 Mai, Luni

Timp Temperatura Precipitaţii Vânt Presiune Umiditate
00:00 +8°C° 0 mm 4 m/s 754 mmHg 79%
01:00 +7°C° 0 mm 4 m/s 754 mmHg 82%
02:00 +7°C° 0 mm 4 m/s 754 mmHg 85%
03:00 +6°C° 0 mm 4 m/s 754 mmHg 83%
04:00 +6°C° 0 mm 4 m/s 754 mmHg 82%
05:00 +6°C° 0 mm 4 m/s 754 mmHg 80%
06:00 +8°C° 0 mm 5 m/s 754 mmHg 75%
07:00 +9°C° 0 mm 5 m/s 754 mmHg 70%
08:00 +11°C° 0 mm 6 m/s 754 mmHg 65%
09:00 +14°C° 0 mm 7 m/s 754 mmHg 61%
10:00 +15°C° 0 mm 7 m/s 754 mmHg 57%
11:00 +17°C° 0 mm 8 m/s 754 mmHg 53%
12:00 +18°C° 0 mm 8 m/s 754 mmHg 53%
13:00 +20°C° 0 mm 8 m/s 754 mmHg 52%
14:00 +20°C° 0 mm 8 m/s 753 mmHg 52%
15:00 +20°C° 0 mm 8 m/s 753 mmHg 55%
16:00 +20°C° 0 mm 7 m/s 753 mmHg 58%
17:00 +20°C° 0 mm 7 m/s 753 mmHg 61%
18:00 +18°C° 0 mm 7 m/s 753 mmHg 64%
19:00 +16°C° 0 mm 6 m/s 753 mmHg 68%
20:00 +15°C° 0 mm 6 m/s 753 mmHg 71%
21:00 +14°C° 0 mm 6 m/s 753 mmHg 72%
22:00 +13°C° 0 mm 6 m/s 753 mmHg 74%
23:00 +13°C° 0 mm 6 m/s 753 mmHg 75%

11 Mai, Marţi

Timp Temperatura Precipitaţii Vânt Presiune Umiditate
00:00 +11°C° 0 mm 6 m/s 753 mmHg 76%
01:00 +11°C° 0 mm 6 m/s 753 mmHg 77%
02:00 +10°C° 0 mm 6 m/s 753 mmHg 78%
03:00 +10°C° 0 mm 6 m/s 753 mmHg 77%
04:00 +9°C° 0 mm 6 m/s 753 mmHg 77%
05:00 +9°C° 0 mm 6 m/s 753 mmHg 76%
06:00 +10°C° 0 mm 6 m/s 753 mmHg 73%
07:00 +11°C° 0 mm 7 m/s 753 mmHg 70%
08:00 +12°C° 0 mm 7 m/s 753 mmHg 67%
09:00 +15°C° 0 mm 8 m/s 753 mmHg 62%
10:00 +17°C° 0 mm 8 m/s 753 mmHg 58%
11:00 +18°C° 0 mm 9 m/s 753 mmHg 53%
12:00 +20°C° 0 mm 8 m/s 752 mmHg 52%
13:00 +21°C° 0 mm 8 m/s 752 mmHg 52%
14:00 +21°C° 0 mm 8 m/s 752 mmHg 51%
15:00 +21°C° 0 mm 8 m/s 752 mmHg 53%
16:00 +21°C° 0 mm 8 m/s 752 mmHg 55%
17:00 +20°C° 0 mm 7 m/s 752 mmHg 57%
18:00 +18°C° 0 mm 7 m/s 751 mmHg 58%
19:00 +16°C° 0 mm 7 m/s 751 mmHg 60%
20:00 +15°C° 0 mm 6 m/s 751 mmHg 61%
21:00 +14°C° 0 mm 6 m/s 751 mmHg 61%
22:00 +14°C° 0 mm 6 m/s 751 mmHg 61%
23:00 +13°C° 0 mm 6 m/s 751 mmHg 61%

12 Mai, Miercuri

Timp Temperatura Precipitaţii Vânt Presiune Umiditate
00:00 +11°C° 0 mm 6 m/s 751 mmHg 65%
01:00 +11°C° 0 mm 6 m/s 751 mmHg 69%
02:00 +10°C° 0 mm 5 m/s 750 mmHg 73%
03:00 +10°C° 0 mm 5 m/s 750 mmHg 76%
04:00 +9°C° 0 mm 6 m/s 750 mmHg 79%
05:00 +9°C° 0 mm 6 m/s 750 mmHg 82%
06:00 +10°C° 0 mm 6 m/s 750 mmHg 79%
07:00 +13°C° 0 mm 6 m/s 750 mmHg 76%
08:00 +14°C° 0 mm 7 m/s 750 mmHg 73%
09:00 +16°C° 0 mm 7 m/s 749 mmHg 69%
10:00 +17°C° 0 mm 8 m/s 749 mmHg 65%
11:00 +20°C° 0 mm 8 m/s 749 mmHg 62%
12:00 +20°C° 0 mm 8 m/s 749 mmHg 59%
13:00 +21°C° 0 mm 8 m/s 748 mmHg 56%
14:00 +21°C° 0 mm 8 m/s 748 mmHg 53%
15:00 +21°C° 0 mm 8 m/s 748 mmHg 57%
16:00 +20°C° 0 mm 7 m/s 747 mmHg 62%
17:00 +20°C° 0 mm 7 m/s 747 mmHg 67%
18:00 +19°C° 0.1 mm 6 m/s 747 mmHg 71%
19:00 +16°C° 0.1 mm 6 m/s 747 mmHg 75%
20:00 +15°C° 0.1 mm 6 m/s 747 mmHg 79%
21:00 +13°C° 0 mm 6 m/s 747 mmHg 80%
22:00 +11°C° 0 mm 6 m/s 747 mmHg 80%
23:00 +9°C° 0 mm 6 m/s 748 mmHg 81%

13 Mai, Joi

Timp Temperatura Precipitaţii Vânt Presiune Umiditate
00:00 +9°C° 0 mm 6 m/s 748 mmHg 83%
01:00 +9°C° 0 mm 6 m/s 748 mmHg 84%
02:00 +8°C° 0 mm 6 m/s 747 mmHg 86%
03:00 +8°C° 0 mm 5 m/s 747 mmHg 87%
04:00 +7°C° 0 mm 5 m/s 747 mmHg 88%
05:00 +7°C° 0 mm 5 m/s 747 mmHg 89%
06:00 +8°C° 0 mm 5 m/s 747 mmHg 86%
07:00 +9°C° 0 mm 6 m/s 747 mmHg 82%
08:00 +10°C° 0 mm 6 m/s 747 mmHg 78%
09:00 +11°C° 0 mm 6 m/s 747 mmHg 77%
10:00 +11°C° 0 mm 6 m/s 746 mmHg 77%
11:00 +12°C° 0 mm 5 m/s 746 mmHg 76%
12:00 +13°C° 0 mm 5 m/s 746 mmHg 75%
13:00 +13°C° 0 mm 5 m/s 745 mmHg 74%
14:00 +14°C° 0 mm 5 m/s 745 mmHg 73%
15:00 +14°C° 0 mm 5 m/s 745 mmHg 71%
16:00 +15°C° 0 mm 4 m/s 744 mmHg 70%
17:00 +15°C° 0 mm 4 m/s 744 mmHg 68%
18:00 +14°C° 0 mm 3 m/s 744 mmHg 73%
19:00 +13°C° 0 mm 3 m/s 743 mmHg 77%
20:00 +13°C° 0 mm 2 m/s 743 mmHg 82%
21:00 +12°C° 0 mm 2 m/s 743 mmHg 84%
22:00 +12°C° 0 mm 2 m/s 743 mmHg 86%
23:00 +10°C° 0 mm 2 m/s 743 mmHg 88%
Arată mai mult

Formular de consimțământ

Meteoprog și furnizorii noștri de servicii pot stoca și accesa date personale, precum cookies, identificatori de dispozitiv sau alte tehnologii similare pe dispozitivul dumneavoastră și procesa astfel de date pentru a personaliza conținutul și reclamele, dar și pentru a oferi caracteristici de social media și pentru a analiza traficul.

  • Stocarea și/sau accesarea informațiilor pe dispozitivul dumneavoastră

    Cookies, identificatori de dispozitiv sau alte informații pot fi stocate sau accesate pe dispozitiv în scopurile indicate mai sus.

  • Reclame și conținut personalizat, evaluarea reclamelor și a conținutului, informații despre audiențe și dezvoltarea produselor

    Reclamele și conținutul pot fi personalizate pe baza unui profil. Pot fi adăugate date suplimentare pentru a personaliza mai bine reclamele și conținutul. Performanța reclamelor și conținutului poate fi măsurată. Pot fi obținute informații despre utilizatorii care au văzut reclamele și conținutul. Aceste date pot fi utilizate pentru a dezvolta sau îmbunătăți experiența utilizatorilor, sistemele și software-ul.

Dând clic pe ‘Sunt de acord’, permiteți utilizarea cookie-urilor menționate, a identificatorilor de dispozitiv, balizelor web sau altor tehnologii similare. Setările pot fi modificate din browser-ul dispozitivului dumneavoastră.

În anumite scopuri, interesele legitime pot prima asupra consimțământului. Puteți citi mai multe informații în acest sens în Politica privind Confidențialitatea Datelor și Cookie.